Weather Roundup
Issued by NWS Chicago, IL

Home | Current Version | Previous Version | Graphics & Text | Print | Product List | Glossary On
Versions: 1 2 3 4 5 6 7 8 9 10 11 12 13 14 15 16 17 18 19 20 21 22 23 24 25 26 27 28 29 30 31 32 33 34 35 36 37 38 39 40 41 42 43 44 45 46 47 48 49 50
000
NZUS59 KLOT 252021
HRRLOT

CHICAGO AREA WEATHER ROUNDUP
NATIONAL WEATHER SERVICE CHICAGO/ROMEOVILLE IL
300 PM CDT SAT APR 25 2015

NOTE: "FAIR" INDICATES FEW OR NO CLOUDS BELOW 12,000 FEET WITH NO
SIGNIFICANT WEATHER AND/OR OBSTRUCTIONS TO VISIBILITY.

* THESE STATIONS ARE NOT UNDER NWS QUALITY CONTROL. THEY ALSO MAY NOT
  REPORT WEATHER SUCH AS PRECIPITATION OR FOG.

ILZ005-006-012>014-019>023-252100-
NORTHEAST ILLINOIS

CITY           SKY/WX    TMP DP  RH WIND       PRES   REMARKS
OHARE          CLOUDY    47  42  83 E17       29.73F
MIDWAY         LGT RAIN  46  43  89 NE18      29.72F
AURORA         CLOUDY    48  42  80 NE20G29   29.69F HAZE
LANSING*       LGT RAIN  45  41  85 NE15G23   29.69F
JOLIET*        LGT RAIN  46  44  93 NE16G26   29.66F
WAUKEGAN       CLOUDY    42  37  82 NE12      29.78F
DUPAGE AIRPORT LGT RAIN  46  42  86 NE18G26   29.71F
WHEELING       CLOUDY    44  40  85 NE13      29.76F
KANKAKEE*      CLOUDY    48  44  86 E18G30    29.66R
MORRIS*        LGT RAIN  46  43  89 E17G29    29.63S
LEWIS AIRPORT* RAIN      45  42  91 NE22      29.67F
NORTHERLY IS     N/A     43  40  89 NE18        N/A
$$

WIZ051-052-058>065-066-070>072-252100-
SOUTHEAST WISCONSIN

CITY           SKY/WX    TMP DP  RH WIND       PRES   REMARKS
MILWAUKEE      CLOUDY    39  29  67 NE14G24   29.85F
KENOSHA*       CLOUDY    46  40  79 NE15      29.80F
RACINE*        CLOUDY    40  32  73 N17       29.84F
BURLINGTON     CLOUDY    41  33  72 NE14G22   29.80F
WAUKESHA       CLOUDY    41  30  65 NE9       29.84S
WEST BEND      CLOUDY    46  23  39 NE16      29.83F
$$

INZ001>003-010>013-019-020-252100-
NORTHWEST INDIANA

CITY           SKY/WX    TMP DP  RH WIND       PRES   REMARKS
GARY*          LGT RAIN  46  41  81 E17G29    29.73F
MICHIGAN CITY* NOT AVBL
RENSSELAER*    NOT AVBL
VALPARAISO     LGT RAIN  46  42  86 E21       29.72F
$$

LMZ740>746-252100-
SOUTHERN LAKE MICHIGAN

STATION/POSITION TIME  SKY/WX   TEMP WIND        PRES    VSBY
                                AIR  DIR/SP/G
                 (UTC)          (F)  (DEG/KT/KT) (MB)    (MI)
HARRISON CRIB    2000            40   50/ 18/ 21   N/A
BURNHAM HARBOR   2000            43   40/ 17/ 17   N/A
CALUMET HARBOR   1900            43   40/  9/ 12   N/A
BURNS HARBOR     1920            45   70/ 13/ 16 1008.5F
MICHIGAN CITY    2000            44   50/ 13/ 14   N/A
$$

ABBREVIATIONS USED IN REMARKS
   TC - TEMPERATURE IN CELSIUS
  WCI - WIND CHILL INDEX
   HX - HEAT INDEX
  VSB - VISIBILITY
$$



USA.gov is the U.S. government's official web portal to all federal, state and local government web resources and services.